Dewpoint
56 57 58 58 58 58 59 59 59 59 60 59 58 58 57 55 55 52 51 50 50 49 48 47 46 45 44 43 43 43 42 40 39 38 37 36 36 36 37 36 34 32 32 33 35 33 31 31 30 31 31 29 28 28 28 28 28 28 28 28 27 28 27 26 23 22 23 25 25 24 24 25 24 24 24 24 24 24 25 24 24 24 24 24 24
55 56 57 57 57 57 58 58 58 59 59 58 58 57 55 54 53 52 51 49 49 49 46 46 45 44 44 42 41 41 39 38 37 36 35 35 36 37 35 34 32 32 31 31 32 34 31 29 29 29 30 30 29 28 28 27 28 27 27 28 26 28 28 27 24 24 22 23 23 23 24 25 23 24 23 23 23 24 23 23 23 23 24 24 24
54 55 55 56 56 57 57 57 57 57 57 56 56 54 53 52 50 50 49 47 46 46 45 44 43 42 41 41 41 39 37 36 36 35 34 34 33 34 34 32 31 30 29 29 30 31 30 29 28 30 32 29 29 28 29 29 28 28 28 27 27 28 28 27 26 24 24 23 24 23 22 23 23 22 24 24 24 24 22 22 22 25 25 24 23
53 53 53 54 55 54 54 54 54 54 54 54 53 52 50 49 48 48 47 46 44 42 42 43 42 42 41 40 38 37 36 35 34 33 33 32 31 31 32 32 31 30 29 29 29 29 28 27 28 29 29 28 27 26 27 28 27 27 28 28 27 28 27 27 27 25 23 23 22 22 23 21 21 22 24 23 21 21 21 22 23 23 23 24 23
51 51 51 51 51 51 51 51 52 52 52 50 50 48 47 46 46 45 44 44 43 41 41 41 42 41 39 37 36 35 34 33 32 32 33 32 31 31 30 30 30 29 29 30 30 29 28 27 27 28 27 26 26 26 27 28 27 27 27 26 26 26 26 26 25 24 23 22 22 22 22 21 22 21 21 20 20 20 21 21 21 21 22 23 24
50 50 50 49 48 49 49 49 50 50 48 47 45 44 43 43 43 42 43 42 41 41 41 41 40 39 37 36 34 33 32 31 31 30 30 31 31 30 30 30 29 29 28 28 28 28 27 27 27 27 26 26 26 27 27 27 27 26 26 25 25 25 24 24 24 23 23 22 21 20 20 20 19 19 20 20 20 19 19 20 21 21 22 22 22
48 48 48 48 47 47 47 48 48 47 45 44 42 42 42 41 41 42 42 42 41 40 40 39 38 36 35 33 32 32 31 31 31 30 30 30 30 29 29 28 28 27 27 27 27 27 27 27 27 27 27 27 27 27 27 27 27 26 25 25 25 24 23 22 22 22 21 20 20 20 19 20 19 17 19 20 20 20 19 20 20 20 22 23 22
45 45 45 45 46 45 45 43 43 43 42 41 41 41 41 41 41 41 40 40 40 39 39 38 35 33 32 31 31 30 30 30 31 30 30 30 29 29 28 27 27 27 26 26 26 26 26 26 26 26 26 26 27 27 27 26 26 25 25 25 25 24 22 22 21 21 20 20 20 19 19 18 18 17 19 18 19 20 21 21 20 20 21 22 21
43 43 43 44 44 43 42 41 41 41 40 40 39 39 40 40 39 40 40 39 38 38 36 32 31 31 30 30 29 30 31 31 31 30 30 29 29 29 28 27 26 25 25 24 24 24 25 25 24 24 26 26 26 27 26 26 27 24 25 25 24 23 23 22 23 21 21 20 20 20 18 17 17 17 18 18 19 19 21 21 21 22 22 21 21
42 42 42 41 40 40 40 39 39 39 39 39 39 38 38 38 38 37 39 38 35 32 30 30 29 29 28 28 29 31 31 32 30 31 31 29 29 30 29 26 25 24 23 22 22 23 24 24 24 26 26 25 26 26 26 26 26 26 25 25 25 24 25 24 24 23 23 22 21 19 19 20 17 17 19 19 20 21 20 21 21 21 20 19 20
41 41 41 40 39 39 39 38 38 38 39 38 38 37 36 36 36 36 35 33 31 30 29 28 28 28 28 28 28 31 31 31 31 32 32 32 29 27 27 26 25 23 21 21 20 20 21 21 22 24 25 25 24 25 25 26 25 25 26 25 25 24 24 24 23 23 22 22 22 21 19 18 18 18 18 21 21 21 20 21 21 19 19 18 17
40 40 40 38 38 38 38 37 37 37 37 36 36 36 35 35 35 33 32 31 30 28 27 26 27 27 28 28 28 29 29 31 32 32 32 32 30 27 27 26 25 23 20 20 20 20 19 19 20 22 21 22 22 23 24 25 25 25 25 24 23 23 24 24 24 23 23 21 20 20 18 18 19 20 20 20 21 21 22 21 20 19 19 19 17
40 39 38 37 37 37 37 37 36 36 36 35 34 34 34 33 32 32 31 28 26 26 25 25 25 27 27 28 28 28 28 32 33 33 32 31 30 27 25 25 23 22 20 19 19 18 19 18 19 20 23 25 24 22 22 23 25 24 23 21 21 22 23 23 22 22 21 21 21 20 19 18 19 20 22 21 22 21 20 19 19 20 19 17 15
40 38 37 37 37 37 36 36 35 35 34 34 33 33 33 32 32 31 30 27 25 25 25 26 26 27 28 28 28 28 28 32 33 32 32 31 29 27 24 22 21 20 19 19 19 18 18 18 18 19 21 22 22 22 23 22 23 22 20 20 20 20 20 19 19 20 20 21 21 21 20 20 20 21 22 22 21 20 19 19 20 19 17 16 16
39 38 37 37 37 36 36 35 35 34 33 32 32 32 32 31 30 29 28 27 27 27 27 28 27 29 29 30 29 28 28 32 33 32 31 30 29 26 22 22 20 19 19 19 18 18 18 18 18 19 20 21 23 24 23 22 23 23 22 22 20 17 16 16 17 19 21 22 21 20 21 21 21 20 21 20 20 20 20 19 18 17 16 17 16
39 38 37 37 36 36 35 35 34 33 32 32 32 31 31 30 29 27 27 25 25 26 26 28 30 31 30 31 29 28 29 32 32 32 32 30 28 24 22 20 20 19 19 19 18 18 17 18 18 19 20 21 25 26 25 23 24 22 22 22 19 18 18 19 21 23 22 21 20 19 20 20 22 21 20 20 19 19 18 17 16 15 14 13 12
39 38 37 36 36 36 35 35 34 33 32 31 32 31 30 29 28 27 28 26 26 25 27 28 29 30 31 31 30 29 29 31 31 31 31 30 26 24 24 23 21 19 18 19 18 17 17 18 19 19 20 21 25 26 25 24 23 23 21 18 18 19 20 22 21 21 20 19 19 20 20 21 21 21 22 21 18 18 15 13 13 13 12 11 11
39 38 38 36 36 35 35 34 33 32 32 32 32 31 30 29 28 27 27 25 26 26 27 27 29 30 31 31 31 30 30 30 31 31 31 28 26 25 24 23 22 21 19 18 18 17 18 22 21 19 20 22 26 25 25 25 23 22 19 18 18 18 20 21 19 17 16 16 16 17 17 17 18 18 17 17 17 17 13 11 13 12 11 11 11
39 38 38 36 35 35 34 34 33 32 32 32 31 30 29 28 27 27 26 26 25 25 26 27 28 29 30 31 30 30 30 30 31 31 29 28 25 25 24 23 22 21 20 19 17 17 19 22 22 21 21 24 25 24 24 23 23 21 18 19 18 19 20 18 15 13 13 12 12 12 12 13 12 10 10 14 15 14 11 12 12 11 11 11 12
40 39 38 35 35 33 33 33 33 32 32 32 31 30 28 27 26 26 26 24 24 23 24 26 27 27 28 29 30 30 29 29 29 30 29 28 26 25 24 22 22 22 21 20 19 19 19 19 21 24 25 25 24 24 24 23 22 19 19 19 19 18 19 15 12 11 11 10 11 11 11 12 12 11 11 11 11 11 12 12 12 12 12 12 12
38 38 37 35 34 33 32 32 32 32 32 31 30 28 27 26 26 25 24 23 23 23 24 24 24 25 26 27 28 30 29 29 29 29 29 28 27 25 24 23 23 22 21 20 20 19 19 19 20 24 25 24 23 24 23 22 21 18 20 19 20 19 16 10 9 11 10 10 10 10 10 10 10 10 9 9 9 10 11 12 13 13 13 12 12
35 36 35 34 33 32 32 32 31 31 31 30 28 27 27 27 26 24 22 23 23 23 23 22 22 22 23 24 26 27 29 29 28 28 29 28 28 26 23 24 23 22 21 20 20 19 19 18 20 22 24 23 23 23 22 22 21 18 20 20 19 17 12 8 8 7 7 8 7 8 7 7 7 8 9 9 9 9 10 11 11 12 13 13 12
33 33 33 32 32 31 31 31 30 29 28 28 27 26 25 25 25 24 23 22 23 22 22 21 21 21 22 22 24 25 27 28 28 27 28 28 29 27 25 24 24 22 20 20 20 19 19 20 21 23 23 22 22 22 22 21 19 20 20 19 16 14 9 6 6 6 6 6 6 6 6 6 6 6 7 8 9 10 8 9 10 11 12 13 13
31 32 31 31 31 30 30 29 29 28 28 27 26 25 24 24 22 21 21 20 19 19 18 20 20 21 21 21 22 23 25 26 28 28 27 28 28 27 26 25 26 22 21 20 20 19 20 20 21 22 22 22 22 21 20 20 18 20 18 17 13 10 6 5 5 5 6 5 5 5 5 6 6 6 7 7 7 8 9 10 10 11 11 12 13
31 31 30 30 29 29 28 28 27 27 27 26 24 23 23 23 20 20 21 19 18 18 17 19 19 19 19 20 20 21 23 24 26 27 27 27 27 27 27 26 26 23 21 20 19 20 21 22 21 22 21 21 20 19 18 18 18 17 16 13 9 5 4 4 5 5 4 4 4 5 5 5 7 7 8 8 9 9 8 8 10 10 11 12 13
31 30 30 29 28 28 27 26 26 26 26 24 24 22 22 20 19 19 19 18 18 18 17 17 18 19 18 19 19 20 21 22 24 26 27 27 27 27 27 27 25 24 21 20 20 22 23 22 22 21 20 19 15 13 10 12 14 13 12 8 6 4 4 4 4 4 4 4 4 4 4 5 6 7 8 8 6 5 6 6 6 6 8 9 10
29 29 28 27 26 26 26 23 23 23 24 22 21 20 20 19 19 18 17 17 17 16 16 16 16 17 17 18 18 19 20 21 21 23 25 26 26 26 26 26 26 24 20 20 22 22 21 20 19 18 16 16 12 12 11 10 8 7 4 4 4 3 3 4 5 4 3 3 3 3 4 5 5 6 5 5 4 5 6 6 6 6 7 9 9
28 28 27 25 24 25 24 21 21 21 21 22 20 19 19 20 18 17 17 16 16 16 16 16 16 17 17 17 17 17 18 18 20 21 23 24 25 25 25 24 24 22 19 20 20 19 18 18 17 14 13 12 8 6 4 3 3 3 3 2 2 2 4 5 6 3 2 2 2 3 3 4 4 4 4 4 4 5 5 5 6 6 7 8 8
27 26 24 23 23 22 23 21 21 21 20 21 20 20 19 18 18 18 20 18 18 18 17 17 18 19 18 17 16 16 16 17 18 23 23 25 24 23 23 23 23 21 20 21 15 12 12 10 8 8 7 6 4 3 2 2 1 1 -0 1 1 1 1 1 1 1 1 2 2 2 3 3 3 4 4 4 4 4 5 5 6 6 7 8 7
25 24 23 22 22 21 21 20 21 20 19 18 19 18 17 21 19 18 17 22 20 20 19 18 18 18 17 17 18 17 16 17 21 24 25 26 26 25 24 24 23 20 21 22 14 10 10 9 7 6 5 4 4 3 3 2 1 1 -0 5 1 -0 1 1 0 1 1 1 1 2 3 3 3 3 3 3 3 4 4 6 5 6 6 7 7
23 22 21 21 21 20 20 19 20 19 19 18 18 16 16 18 19 20 20 21 21 20 20 21 19 19 17 17 17 18 18 20 22 25 25 26 26 25 25 24 24 23 24 17 11 7 7 6 5 4 4 4 4 4 3 2 1 1 0 -0 -1 -0 1 -0 -0 1 1 1 1 2 2 2 2 2 3 3 3 3 3 4 5 6 6 6 6
23 21 21 20 19 19 19 19 19 18 17 17 17 16 16 15 17 19 19 20 21 20 21 21 21 21 21 19 17 18 20 21 24 25 25 26 26 25 24 25 24 23 24 19 8 5 5 5 5 4 4 3 3 3 2 2 1 0 -0 -1 -1 -1 -1 -1 0 0 -0 -0 1 2 1 1 1 2 2 2 3 2 2 3 4 5 6 6 6
23 21 21 20 18 17 17 18 18 18 17 17 16 16 15 15 14 16 18 20 20 21 21 22 21 21 22 21 20 19 20 23 24 25 25 26 26 25 24 25 24 24 24 14 6 5 4 4 4 4 3 3 3 2 2 1 0 -0 -1 -1 -1 -1 -0 1 -0 -1 -1 -0 1 1 1 1 1 1 2 2 1 1 2 2 3 5 6 5 5
23 21 19 19 18 17 17 17 17 16 16 16 16 16 16 16 15 16 17 18 19 21 22 23 22 22 22 22 21 21 22 24 25 26 26 26 26 26 24 23 25 25 22 12 7 5 4 4 4 3 3 3 2 1 0 0 -0 -1 -1 -1 -1 -0 -0 -0 -2 -2 -1 -0 0 0 0 0 1 0 0 1 1 1 1 2 3 4 5 4 4
19 16 15 16 18 17 16 17 16 16 15 15 14 15 15 15 14 15 16 17 17 17 19 21 23 23 22 21 22 21 23 25 26 26 26 26 26 26 25 22 22 21 20 15 8 5 4 3 3 3 3 2 1 0 0 0 -1 -1 -2 -2 -2 -3 -3 -3 -2 -2 -1 -1 -0 -0 -0 -0 -1 -0 -0 -0 -0 -0 1 1 3 4 4 4 4
19 18 17 16 17 17 16 17 15 15 15 14 15 14 13 14 14 14 16 16 16 16 17 19 21 22 22 22 22 23 25 26 26 26 26 26 26 26 21 19 19 19 18 13 7 5 4 3 3 3 2 1 1 -0 -0 -1 -1 -2 -2 -2 -3 -3 -3 -3 -3 -2 -1 -1 -1 -0 0 -1 -1 -1 -1 -1 -0 0 1 2 3 4 5 4 3
17 17 16 16 16 16 15 15 15 15 15 13 13 13 13 13 13 14 14 15 15 15 16 19 19 20 21 20 22 24 25 25 26 26 26 26 26 23 20 18 18 16 15 11 7 4 3 3 3 3 2 1 0 -1 -1 -2 -2 -2 -1 -3 -3 -3 -3 -3 -3 -2 -1 -1 -2 -1 -1 -2 -2 -2 -2 -1 -1 0 1 2 3 3 4 4 4
16 16 16 15 15 15 14 13 13 14 13 12 13 12 12 13 13 13 13 14 15 14 15 17 19 18 19 19 21 21 21 24 25 25 25 25 23 21 19 17 16 14 12 11 7 5 3 3 2 2 1 0 -0 -1 -2 -2 -3 -3 -3 -3 -3 -3 -2 -2 -0 -0 -2 -3 -2 -2 -1 -2 -2 -2 -1 -1 -1 -0 0 1 1 2 3 3 3
13 13 13 14 14 14 13 12 12 12 12 11 11 12 11 12 12 12 12 13 14 14 14 15 16 17 18 18 19 20 21 21 21 21 21 21 21 20 18 16 14 13 11 9 8 5 3 3 1 1 0 -0 -1 -2 -3 -3 -3 -3 -3 -4 -4 -4 -3 -3 -3 -4 -4 -4 -3 -2 -2 -2 -3 -2 -2 -2 -1 -0 -0 1 1 2 2 2 2
12 12 12 13 12 12 11 11 11 11 10 10 10 10 10 10 11 11 12 12 13 13 13 13 13 15 17 18 17 19 19 19 20 19 19 19 18 19 17 15 13 12 9 8 6 4 3 2 1 -0 -0 -1 -2 -2 -3 -3 -3 -3 -4 -4 -5 -4 -4 -4 -5 -5 -4 -4 -3 -2 -2 -2 -3 -2 -2 -2 -2 -1 -0 -0 1 1 2 2 2
12 11 9 12 12 11 9 9 9 10 10 9 10 9 9 10 10 10 10 11 11 11 12 13 13 13 15 16 19 19 17 17 18 18 18 17 17 17 16 12 12 11 9 6 4 3 2 1 0 -1 -1 -2 -2 -3 -3 -3 -4 -4 -4 -5 -5 -4 -4 -4 -5 -5 -4 -4 -4 -3 -3 -3 -3 -3 -3 -2 -0 -1 -1 -1 -0 1 1 2 1
10 10 10 10 9 9 9 8 8 7 8 8 8 8 8 8 8 8 9 9 9 10 10 11 11 12 14 16 18 19 17 16 16 17 17 16 16 15 14 13 13 12 10 5 3 2 1 1 -0 -1 -2 -2 -3 -3 -3 -4 -4 -4 -5 -5 -5 -5 -5 -5 -5 -5 -5 -5 -4 -3 -3 -3 -3 -2 -2 -0 -3 -3 -3 -2 -2 -0 1 1 1
8 9 8 8 8 8 8 8 7 7 6 7 7 6 7 7 7 7 7 7 8 8 8 8 9 9 11 15 15 17 15 15 12 15 15 15 14 13 12 12 11 10 10 8 5 3 2 1 -0 -2 -2 -2 -2 -3 -4 -4 -4 -5 -5 -5 -5 -5 -6 -6 -6 -6 -5 -5 -4 -3 -3 -3 -3 -3 -3 -3 -3 -4 -4 -4 -2 -1 -0 0 0
7 6 6 6 7 6 6 6 6 5 6 5 5 5 5 5 5 6 6 6 6 6 6 7 7 8 7 10 13 13 13 13 13 13 13 12 12 11 10 9 9 9 8 7 4 2 1 -0 -1 -2 -2 -2 -2 -2 -3 -4 -4 -5 -5 -6 -6 -6 -6 -7 -7 -6 -6 -5 -4 -4 -4 -3 -3 -3 -3 -3 -4 -5 -5 -4 -4 -3 -2 -1 -1
5 5 5 5 5 5 5 5 5 5 4 4 4 4 4 5 5 5 5 5 5 6 6 6 6 6 6 7 8 10 10 11 10 10 10 11 10 10 9 9 9 8 6 2 0 0 -0 -1 -1 -2 -3 -3 -4 -4 -4 -4 -4 -5 -5 -6 -6 -7 -7 -7 -6 -6 -6 -5 -6 -5 -4 -3 -3 -4 -4 -4 -4 -4 -5 -5 -5 -3 -3 -2 -1
3 4 4 4 4 4 3 4 3 4 4 4 4 4 4 4 4 4 4 4 5 5 5 5 5 5 5 5 6 6 7 8 8 9 9 9 8 8 7 7 5 4 2 1 -1 -1 -2 -2 -2 -2 -3 -4 -5 -5 -6 -6 -6 -6 -5 -6 -6 -7 -7 -7 -7 -7 -7 -7 -7 -6 -5 -4 -4 -3 -3 -4 -4 -5 -5 -6 -5 -4 -3 -2 -1
1 2 2 2 3 3 2 3 3 3 3 3 3 3 3 4 4 3 3 4 4 4 4 4 4 4 4 4 4 4 5 5 6 6 7 7 7 7 6 4 3 2 1 0 -1 -2 -3 -3 -3 -3 -4 -4 -5 -6 -7 -7 -7 -7 -7 -7 -7 -6 -7 -8 -8 -8 -8 -8 -7 -7 -6 -5 -5 -4 -4 -3 -4 -5 -6 -6 -6 -6 -4 -3 -3
-0 0 1 1 1 1 1 2 2 2 2 2 2 3 3 3 3 3 3 3 3 3 3 3 3 3 3 3 4 4 3 3 4 4 5 5 6 5 5 3 2 1 -0 -1 -2 -3 -4 -4 -3 -4 -4 -5 -6 -7 -7 -8 -8 -8 -8 -8 -8 -8 -7 -7 -8 -8 -7 -7 -7 -8 -7 -7 -6 -5 -4 -4 -5 -6 -7 -7 -7 -6 -6 -4 -3
-1 -1 -0 -0 -0 0 1 1 1 1 2 2 2 2 2 2 2 2 2 2 2 2 3 2 3 3 2 3 3 2 3 2 2 3 3 3 4 4 4 3 0 -0 -2 -3 -3 -4 -4 -5 -5 -5 -5 -6 -6 -7 -7 -7 -8 -9 -9 -9 -9 -7 -7 -7 -8 -9 -8 -8 -9 -9 -8 -8 -6 -5 -5 -4 -5 -6 -7 -7 -8 -7 -7 -5 -4
-2 -2 -1 -1 -1 -1 -0 -0 0 0 0 1 1 1 1 1 1 2 2 2 2 2 2 2 2 2 2 2 2 2 2 1 1 1 1 2 2 3 3 2 -0 -2 -3 -4 -5 -6 -6 -6 -5 -5 -6 -6 -6 -7 -8 -8 -8 -9 -9 -10 -8 -7 -7 -7 -7 -8 -9 -9 -9 -9 -8 -7 -6 -5 -5 -5 -6 -7 -8 -8 -8 -7 -6 -6 -4
-2 -2 -2 -2 -2 -1 -2 -1 -0 -0 -1 -1 0 1 1 1 1 1 1 1 1 2 2 2 1 1 1 1 1 1 1 1 1 1 1 1 1 1 1 -0 -2 -4 -5 -6 -6 -7 -7 -7 -7 -6 -7 -7 -7 -8 -8 -9 -9 -9 -8 -7 -7 -6 -7 -7 -9 -8 -7 -8 -9 -8 -8 -7 -6 -6 -6 -6 -7 -8 -8 -8 -8 -8 -7 -7 -5